Location: Melbourne
(37.8170°S, 144.9670°E)
Time: 16:49:18
(UTC+11:00)

deb Explorer IX - All Passes

Search period start: 23 November 2014 00:00
Search period end: 03 December 2014 00:00
Orbit: 558 x 1194 km, 38.8° (Epoch: 21 November)

Date Brightness Start Highest point End Pass type
(mag) Time Alt. Az. Time Alt. Az. Time Alt. Az.
23 Nov - 02:57:09 10° NNE 02:59:37 12° NE 03:02:01 10° ENE visible
23 Nov - 04:40:49 10° NW 04:47:27 39° NNE 04:53:16 10° E visible
23 Nov - 06:28:53 10° WNW 06:35:44 82° NNE 06:41:27 10° E daylight
23 Nov - 08:18:01 10° W 08:24:13 81° S 08:29:20 10° E daylight
23 Nov - 10:06:59 10° W 10:12:22 59° NNW 10:16:54 10° ENE daylight
23 Nov - 11:56:51 10° WNW 11:59:38 16° NW 12:02:16 10° N daylight
24 Nov - 02:49:08 10° N 02:53:15 16° NE 02:57:10 10° ENE visible
24 Nov - 04:34:12 10° NW 04:41:10 46° NNE 04:47:16 10° E visible
24 Nov - 06:22:35 10° WNW 06:29:33 88° NNE 06:35:22 10° E daylight
24 Nov - 08:11:46 10° W 08:18:04 84° S 08:23:16 10° E daylight
24 Nov - 10:00:47 10° W 10:06:09 50° NNW 10:10:42 10° NE daylight
24 Nov - 11:51:25 10° WNW 11:53:18 12° NW 11:55:06 10° NNW daylight
25 Nov - 02:41:40 10° N 02:46:48 20° NE 02:51:39 10° E visible
25 Nov - 04:27:36 10° NW 04:34:50 53° NNE 04:41:08 10° E visible
25 Nov - 06:16:14 10° W 06:23:18 88° S 06:29:13 10° E daylight
25 Nov - 08:05:27 10° W 08:11:51 88° S 08:17:08 10° E daylight
25 Nov - 09:54:31 10° W 09:59:51 43° NNW 10:04:22 10° NE daylight
26 Nov - 02:34:26 10° NNW 02:40:18 24° NE 02:45:49 10° E visible
26 Nov - 04:21:00 10° NW 04:28:25 60° NNE 04:34:55 10° E visible
26 Nov - 06:09:50 10° W 06:16:59 85° S 06:22:59 10° E daylight
26 Nov - 07:59:03 10° W 08:05:34 87° NNW 08:10:55 10° ENE daylight
26 Nov - 09:48:13 10° W 09:53:27 36° NNW 09:57:54 10° NE daylight
27 Nov - 02:27:18 10° NNW 02:33:44 29° NE 02:39:46 10° E visible
27 Nov - 04:14:23 10° WNW 04:21:57 68° NNE 04:28:36 10° ESE visible
27 Nov - 06:03:22 10° W 06:10:36 83° S 06:16:42 10° E daylight
27 Nov - 07:52:35 10° W 07:59:11 81° NNW 08:04:37 10° ENE daylight
27 Nov - 09:41:53 10° W 09:46:57 31° NW 09:51:18 10° NNE daylight
28 Nov - 02:20:15 10° NNW 02:27:05 34° NNE 02:33:32 10° E visible
28 Nov - 04:07:45 10° WNW 04:15:25 75° NNE 04:22:12 10° ESE visible
28 Nov - 05:56:50 10° W 06:04:09 82° S 06:10:20 10° E daylight
28 Nov - 07:46:02 10° WSW 07:52:42 74° NNW 07:58:12 10° ENE daylight
28 Nov - 09:35:32 10° W 09:40:21 26° NW 09:44:32 10° NNE daylight
29 Nov - 00:29:57 10° NNE 00:32:42 12° NE 00:35:26 10° ENE visible
29 Nov - 02:13:15 10° NW 02:20:24 40° NNE 02:27:10 10° E visible
29 Nov - 04:01:05 10° WNW 04:08:50 81° NNE 04:15:44 10° E visible
29 Nov - 05:50:14 10° W 05:57:38 83° S 06:03:55 10° E daylight
29 Nov - 07:39:26 10° WSW 07:46:08 67° NNW 07:51:42 10° ENE daylight
29 Nov - 09:29:11 10° W 09:33:39 22° NW 09:37:35 10° N daylight
30 Nov - 00:21:39 10° N 00:25:51 16° NE 00:30:02 10° ENE visible
30 Nov - 02:06:16 10° NW 02:13:38 46° NNE 02:20:41 10° E visible
30 Nov - 03:54:23 10° WNW 04:02:11 86° NNE 04:09:11 10° E visible
30 Nov - 05:43:34 10° W 05:51:02 84° S 05:57:24 10° E daylight
30 Nov - 07:32:45 10° WSW 07:39:29 59° NNW 07:45:06 10° NE daylight
30 Nov - 09:22:53 10° W 09:26:51 18° NW 09:30:26 10° N daylight
01 Dec - 00:13:51 10° N 00:18:56 19° NE 00:24:03 10° E visible
01 Dec - 01:59:17 10° NW 02:06:50 53° NNE 02:14:05 10° E visible
01 Dec - 03:47:38 10° WNW 03:55:29 90° S 04:02:34 10° E visible
01 Dec - 05:36:50 10° W 05:44:22 87° S 05:50:49 10° E daylight
01 Dec - 07:26:01 10° W 07:32:44 52° NNW 07:38:22 10° NE daylight
01 Dec - 09:16:41 10° WNW 09:19:58 15° NW 09:22:59 10° N daylight
02 Dec - 00:06:15 10° N 00:11:58 23° NE 00:17:45 10° E visible
02 Dec - 01:52:19 10° NW 01:59:58 59° NNE 02:07:23 10° ESE visible
02 Dec - 03:40:50 10° W 03:48:42 86° S 03:55:52 10° E visible
02 Dec - 05:30:01 10° W 05:37:37 89° NNW 05:44:09 10° ENE daylight
02 Dec - 07:19:14 10° W 07:25:53 46° NNW 07:31:31 10° NE daylight
02 Dec - 09:10:49 10° WNW 09:13:00 12° NW 09:15:03 10° NNW daylight
02 Dec - 23:58:46 10° NNW 00:00:15 15° N 00:00:00 14° N night (unlit)
